| time (UTC) | temp F | wind direction | speed MPH | gust MPH | rain 1hr in | rain 24hr in | rain mn in | humidity % | barometer mb |
| 20260504033021 | 61 | 284 | 2.0 | 6.0 | 0.00 | 0.00 | 0.00 | 41 | 1018.3 |
| 20260504032520 | 60 | 293 | 2.0 | 4.0 | 0.00 | 0.00 | 0.00 | 41 | 1018.3 |
| 20260504032021 | 60 | 293 | 2.0 | 4.0 | 0.00 | 0.00 | 0.00 | 41 | 1018.3 |
| 20260504031520 | 60 | 293 | 5.0 | 114.0 | 0.00 | 0.00 | 0.00 | 41 | 1018.3 |
| 20260504031023 | 60 | 293 | 5.0 | 114.0 | 0.00 | 0.00 | 0.00 | 41 | 1018.3 |
| 20260504030543 | 60 | 293 | 1.0 | 3.0 | 0.00 | 0.00 | 0.00 | 41 | 1018.3 |
| 20260504030518 | 60 | 280 | 0.0 | 3.0 | 0.00 | 0.00 | 0.00 | 41 | 1018.3 |
| 20260504030132 | 60 | 280 | 0.0 | 3.0 | 0.00 | 0.00 | 0.00 | 41 | 1018.3 |
| 20260504025518 | 60 | 270 | 0.0 | 2.0 | 0.00 | 0.00 | 0.00 | 41 | 1018.3 |
| 20260504025515 | 60 | 270 | 0.0 | 2.0 | 0.00 | 0.00 | 0.00 | 41 | 1018.3 |
| 20260504025045 | 60 | 270 | 1.0 | 2.0 | 0.00 | 0.00 | 0.00 | 40 | 1018.3 |
| 20260504025021 | 60 | 270 | 1.0 | 4.0 | 0.00 | 0.00 | 0.00 | 40 | 1018.3 |
| 20260504024517 | 60 | 270 | 1.0 | 4.0 | 0.00 | 0.00 | 0.00 | 40 | 1018.3 |
| 20260504024022 | 61 | 276 | 1.0 | 4.0 | 0.00 | 0.00 | 0.00 | 40 | 1018.3 |
| 20260504024017 | 60 | 276 | 1.0 | 3.0 | 0.00 | 0.00 | 0.00 | 40 | 1018.4 |
| 20260504023556 | 61 | 276 | 1.0 | 4.0 | 0.00 | 0.00 | 0.00 | 40 | 1018.3 |
| 20260504023521 | 61 | 276 | 1.0 | 4.0 | 0.00 | 0.00 | 0.00 | 40 | 1018.3 |
| 20260504023019 | 60 | 303 | 1.0 | 7.0 | 0.00 | 0.00 | 0.00 | 41 | 1018.4 |
| 20260504022525 | 60 | 303 | 1.0 | 7.0 | 0.00 | 0.00 | 0.00 | 41 | 1018.4 |
| 20260504022520 | 60 | 314 | 1.0 | 5.0 | 0.00 | 0.00 | 0.00 | 41 | 1018.5 |
| 20260504022019 | 60 | 283 | 2.0 | 6.0 | 0.00 | 0.00 | 0.00 | 41 | 1018.5 |
| 20260504021541 | 60 | 283 | 2.0 | 6.0 | 0.00 | 0.00 | 0.00 | 41 | 1018.5 |
| 20260504021019 | 60 | 299 | 1.0 | 4.0 | 0.00 | 0.00 | 0.00 | 41 | 1018.5 |
| 20260504020521 | 60 | 293 | 2.0 | 5.0 | 0.00 | 0.00 | 0.00 | 41 | 1018.2 |
| 20260504020519 | 60 | 298 | 2.0 | 6.0 | 0.00 | 0.00 | 0.00 | 41 | 1018.3 |
| 20260504020135 | 60 | 293 | 2.0 | 5.0 | 0.00 | 0.00 | 0.00 | 41 | 1018.2 |
| 20260504015522 | 60 | 306 | 2.0 | 6.0 | 0.00 | 0.00 | 0.00 | 42 | 1018.3 |
| 20260504015520 | 59 | 332 | 4.0 | 7.0 | 0.00 | 0.00 | 0.00 | 43 | 1018.2 |
| 20260504015018 | 59 | 332 | 4.0 | 7.0 | 0.00 | 0.00 | 0.00 | 43 | 1018.2 |
| 20260504014600 | 59 | 319 | 3.0 | 7.0 | 0.00 | 0.00 | 0.00 | 44 | 1018.3 |
| 20260504014519 | 59 | 350 | 3.0 | 6.0 | 0.00 | 0.00 | 0.00 | 45 | 1018.2 |
| 20260504014024 | 59 | 350 | 3.0 | 6.0 | 0.00 | 0.00 | 0.00 | 45 | 1018.2 |
| 20260504013537 | 59 | 358 | 4.0 | 7.0 | 0.00 | 0.00 | 0.00 | 45 | 1018.2 |
| 20260504013519 | 59 | 315 | 2.0 | 6.0 | 0.00 | 0.00 | 0.00 | 44 | 1018.4 |
| 20260504012520 | 59 | 315 | 2.0 | 6.0 | 0.00 | 0.00 | 0.00 | 44 | 1018.4 |
| 20260504012518 | 59 | 323 | 1.0 | 6.0 | 0.00 | 0.00 | 0.00 | 44 | 1018.4 |
| 20260504012023 | 59 | 315 | 2.0 | 4.0 | 0.00 | 0.00 | 0.00 | 44 | 1018.5 |
| 20260504011522 | 59 | 300 | 2.0 | 6.0 | 0.00 | 0.00 | 0.00 | 43 | 1018.5 |
| 20260504011519 | 59 | 315 | 2.0 | 4.0 | 0.00 | 0.00 | 0.00 | 44 | 1018.5 |
| 20260504011019 | 59 | 300 | 2.0 | 6.0 | 0.00 | 0.00 | 0.00 | 43 | 1018.5 |
| 20260504010541 | 59 | 288 | 3.0 | 4.0 | 0.00 | 0.00 | 0.00 | 43 | 1018.4 |
| 20260504010519 | 59 | 294 | 2.0 | 5.0 | 0.00 | 0.00 | 0.00 | 43 | 1018.5 |
| 20260504010133 | 59 | 294 | 2.0 | 5.0 | 0.00 | 0.00 | 0.00 | 43 | 1018.5 |
| 20260504005522 | 59 | 293 | 1.0 | 2.0 | 0.00 | 0.00 | 0.00 | 43 | 1018.5 |
| 20260504005519 | 58 | 0.0 | 0.0 | 0.00 | 0.00 | 0.00 | 44 | 1018.7 | |
| 20260504005024 | 58 | 0.0 | 0.0 | 0.00 | 0.00 | 0.00 | 45 | 1018.7 | |
| 20260504005020 | 58 | 0.0 | 0.0 | 0.00 | 0.00 | 0.00 | 44 | 1018.7 | |
| 20260504004538 | 58 | 0.0 | 0.0 | 0.00 | 0.00 | 0.00 | 45 | 1018.7 | |
| 20260504004020 | 58 | 293 | 0.0 | 2.0 | 0.00 | 0.00 | 0.00 | 45 | 1018.7 |
| 20260504003521 | 58 | 293 | 0.0 | 2.0 | 0.00 | 0.00 | 0.00 | 45 | 1018.7 |
| 20260504003518 | 58 | 293 | 1.0 | 2.0 | 0.00 | 0.00 | 0.00 | 45 | 1018.6 |
| 20260504003021 | 58 | 293 | 1.0 | 2.0 | 0.00 | 0.00 | 0.00 | 45 | 1018.6 |
| 20260504002521 | 58 | 0.0 | 0.0 | 0.00 | 0.00 | 0.00 | 47 | 1018.6 | |
| 20260504002025 | 58 | 0.0 | 0.0 | 0.00 | 0.00 | 0.00 | 47 | 1018.6 | |
| 20260504001516 | 58 | 0.0 | 0.0 | 0.00 | 0.00 | 0.00 | 47 | 1018.7 | |
| 20260504001019 | 58 | 0.0 | 0.0 | 0.00 | 0.00 | 0.00 | 47 | 1018.7 | |
| 20260504001016 | 58 | 0.0 | 0.0 | 0.00 | 0.00 | 0.00 | 47 | 1018.7 | |
| 20260504000519 | 59 | 0.0 | 0.0 | 0.00 | 0.00 | 0.00 | 46 | 1018.7 | |
| 20260504000134 | 59 | 286 | 1.0 | 3.0 | 0.00 | 0.00 | 0.00 | 46 | 1018.7 |
| 20260504000024 | 59 | 0.0 | 0.0 | 0.00 | 0.00 | 0.00 | 46 | 1018.7 | |
| 20260503235519 | 59 | 0.0 | 0.0 | 0.00 | 0.00 | 0.00 | 46 | 1018.7 | |
| 20260503235515 | 59 | 0.0 | 0.0 | 0.00 | 0.00 | 0.00 | 46 | 1018.7 | |
| 20260503235020 | 59 | 275 | 1.0 | 5.0 | 0.00 | 0.00 | 0.00 | 46 | 1018.8 |
| 20260503234524 | 59 | 275 | 1.0 | 5.0 | 0.00 | 0.00 | 0.00 | 46 | 1018.8 |
| 20260503234021 | 59 | 274 | 1.0 | 6.0 | 0.00 | 0.00 | 0.00 | 46 | 1018.8 |
| 20260503234016 | 59 | 274 | 1.0 | 6.0 | 0.00 | 0.00 | 0.00 | 46 | 1018.8 |
| 20260503233524 | 59 | 248 | 0.0 | 2.0 | 0.00 | 0.00 | 0.00 | 46 | 1018.9 |
| 20260503233518 | 59 | 252 | 0.0 | 2.0 | 0.00 | 0.00 | 0.00 | 47 | 1018.9 |
| 20260503233023 | 59 | 270 | 1.0 | 4.0 | 0.00 | 0.00 | 0.00 | 48 | 1019.0 |
| 20260503233018 | 59 | 252 | 0.0 | 2.0 | 0.00 | 0.00 | 0.00 | 47 | 1018.9 |
| 20260503232519 | 59 | 270 | 0.0 | 1.0 | 0.00 | 0.00 | 0.00 | 49 | 1019.0 |
| 20260503232024 | 59 | 270 | 0.0 | 1.0 | 0.00 | 0.00 | 0.00 | 49 | 1019.0 |
| 20260503231523 | 58 | 270 | 0.0 | 1.0 | 0.00 | 0.00 | 0.00 | 50 | 1018.9 |
| 20260503231023 | 58 | 270 | 0.0 | 1.0 | 0.00 | 0.00 | 0.00 | 51 | 1019.2 |
| 20260503230520 | 59 | 0.0 | 0.0 | 0.00 | 0.00 | 0.00 | 50 | 1019.3 | |
| 20260503230020 | 59 | 0.0 | 0.0 | 0.00 | 0.00 | 0.00 | 50 | 1019.3 | |
| 20260503230018 | 59 | 0.0 | 0.0 | 0.00 | 0.00 | 0.00 | 50 | 1019.3 | |
| 20260503225523 | 59 | 0.0 | 0.0 | 0.00 | 0.00 | 0.00 | 50 | 1019.3 | |
| 20260503225519 | 58 | 270 | 0.0 | 2.0 | 0.00 | 0.00 | 0.00 | 50 | 1019.2 |
| 20260503225023 | 58 | 270 | 0.0 | 2.0 | 0.00 | 0.00 | 0.00 | 50 | 1019.2 |
| 20260503225018 | 58 | 270 | 0.0 | 2.0 | 0.00 | 0.00 | 0.00 | 51 | 1019.3 |
| 20260503224524 | 58 | 270 | 0.0 | 2.0 | 0.00 | 0.00 | 0.00 | 51 | 1019.3 |
| 20260503224020 | 58 | 0.0 | 0.0 | 0.00 | 0.00 | 0.00 | 51 | 1019.3 | |
| 20260503223522 | 58 | 0.0 | 0.0 | 0.00 | 0.00 | 0.00 | 51 | 1019.3 | |
| 20260503223025 | 58 | 0.0 | 0.0 | 0.00 | 0.00 | 0.00 | 51 | 1019.3 | |
| 20260503222537 | 58 | 282 | 0.0 | 3.0 | 0.00 | 0.00 | 0.00 | 51 | 1019.4 |
| 20260503222022 | 59 | 288 | 1.0 | 6.0 | 0.00 | 0.00 | 0.00 | 53 | 1019.4 |
| 20260503221518 | 59 | 0.0 | 0.0 | 0.00 | 0.00 | 0.00 | 54 | 1019.2 | |
| 20260503221024 | 59 | 0.0 | 0.0 | 0.00 | 0.00 | 0.00 | 54 | 1019.2 | |
| 20260503220518 | 59 | 270 | 0.0 | 2.0 | 0.00 | 0.00 | 0.00 | 54 | 1019.2 |
| 20260503220021 | 58 | 291 | 2.0 | 7.0 | 0.00 | 0.00 | 0.00 | 56 | 1019.1 |
| 20260503220017 | 59 | 277 | 0.0 | 3.0 | 0.00 | 0.00 | 0.00 | 54 | 1019.1 |
| 20260503215519 | 58 | 293 | 0.0 | 1.0 | 0.00 | 0.00 | 0.00 | 58 | 1019.2 |
| 20260503215517 | 58 | 291 | 2.0 | 7.0 | 0.00 | 0.00 | 0.00 | 56 | 1019.1 |
| 20260503215044 | 58 | 293 | 0.0 | 1.0 | 0.00 | 0.00 | 0.00 | 58 | 1019.2 |
| 20260503214516 | 58 | 293 | 1.0 | 4.0 | 0.00 | 0.00 | 0.00 | 60 | 1019.2 |
| 20260503214021 | 58 | 289 | 1.0 | 4.0 | 0.00 | 0.00 | 0.00 | 60 | 1019.2 |
| 20260503214016 | 58 | 289 | 1.0 | 4.0 | 0.00 | 0.00 | 0.00 | 60 | 1019.2 |
| 20260503213521 | 57 | 293 | 1.0 | 4.0 | 0.00 | 0.00 | 0.00 | 63 | 1019.2 |
| 20260503213518 | 57 | 0.0 | 0.0 | 0.00 | 0.00 | 0.00 | 64 | 1019.2 | |
| 20260503213023 | 57 | 0.0 | 0.0 | 0.00 | 0.00 | 0.00 | 64 | 1019.2 | |
| 20260503213021 | 57 | 0.0 | 0.0 | 0.00 | 0.00 | 0.00 | 66 | 1019.2 | |
| 20260503212525 | 57 | 0.0 | 0.0 | 0.00 | 0.00 | 0.00 | 66 | 1019.2 | |
| 20260503212519 | 57 | 293 | 0.0 | 2.0 | 0.00 | 0.00 | 0.00 | 67 | 1019.2 |
| 20260503212018 | 57 | 293 | 0.0 | 2.0 | 0.00 | 0.00 | 0.00 | 67 | 1019.2 |
| 20260503211523 | 57 | 293 | 0.0 | 2.0 | 0.00 | 0.00 | 0.00 | 67 | 1019.2 |
| 20260503211025 | 57 | 0.0 | 0.0 | 0.00 | 0.00 | 0.00 | 67 | 1019.3 | |
| 20260503210524 | 57 | 0.0 | 0.0 | 0.00 | 0.00 | 0.00 | 67 | 1019.3 | |
| 20260503210519 | 56 | 0.0 | 0.0 | 0.00 | 0.00 | 0.00 | 67 | 1019.3 | |
| 20260503210021 | 56 | 0.0 | 0.0 | 0.00 | 0.00 | 0.00 | 67 | 1019.3 | |
| 20260503205543 | 56 | 290 | 1.0 | 4.0 | 0.00 | 0.00 | 0.00 | 68 | 1019.2 |
| 20260503205518 | 56 | 0.0 | 0.0 | 0.00 | 0.00 | 0.00 | 68 | 1019.1 | |
| 20260503205024 | 56 | 0.0 | 0.0 | 0.00 | 0.00 | 0.00 | 68 | 1019.2 | |
| 20260503205022 | 56 | 0.0 | 0.0 | 0.00 | 0.00 | 0.00 | 68 | 1019.1 | |
| 20260503204519 | 56 | 0.0 | 0.0 | 0.00 | 0.00 | 0.00 | 68 | 1019.2 | |
| 20260503204019 | 56 | 0.0 | 0.0 | 0.00 | 0.00 | 0.00 | 67 | 1019.2 | |
| 20260503203519 | 57 | 0.0 | 0.0 | 0.00 | 0.00 | 0.00 | 67 | 1019.3 | |
| 20260503203021 | 57 | 0.0 | 0.0 | 0.00 | 0.00 | 0.00 | 67 | 1019.3 | |
| 20260503203016 | 57 | 0.0 | 0.0 | 0.00 | 0.00 | 0.00 | 67 | 1019.3 | |
| 20260503202524 | 57 | 0.0 | 0.0 | 0.00 | 0.00 | 0.00 | 67 | 1019.3 | |
| 20260503202020 | 57 | 0.0 | 0.0 | 0.00 | 0.00 | 0.00 | 66 | 1019.0 | |
| 20260503201535 | 57 | 0.0 | 0.0 | 0.00 | 0.00 | 0.00 | 66 | 1019.1 | |
| 20260503201018 | 57 | 0.0 | 0.0 | 0.00 | 0.00 | 0.00 | 66 | 1019.1 | |
| 20260503200521 | 57 | 0.0 | 0.0 | 0.00 | 0.00 | 0.00 | 65 | 1019.0 | |
| 20260503200018 | 57 | 0.0 | 0.0 | 0.00 | 0.00 | 0.00 | 65 | 1019.0 | |
| 20260503195517 | 57 | 0.0 | 0.0 | 0.00 | 0.00 | 0.00 | 65 | 1018.9 | |
| 20260503195016 | 58 | 0.0 | 0.0 | 0.00 | 0.00 | 0.00 | 64 | 1019.0 | |
| 20260503194525 | 58 | 0.0 | 0.0 | 0.00 | 0.00 | 0.00 | 64 | 1018.9 | |
| 20260503194022 | 58 | 0.0 | 0.0 | 0.00 | 0.00 | 0.00 | 64 | 1019.0 | |
| 20260503193542 | 58 | 0.0 | 0.0 | 0.00 | 0.00 | 0.00 | 63 | 1019.1 | |
| 20260503193519 | 58 | 0 | 0.0 | 2.0 | 0.00 | 0.00 | 0.00 | 62 | 1019.0 |
| 20260503193026 | 58 | 0 | 0.0 | 2.0 | 0.00 | 0.00 | 0.00 | 62 | 1019.0 |
| 20260503193021 | 59 | 0.0 | 0.0 | 0.00 | 0.00 | 0.00 | 62 | 1019.0 | |
| 20260503192515 | 59 | 0.0 | 0.0 | 0.00 | 0.00 | 0.00 | 62 | 1019.0 | |
| 20260503192017 | 59 | 113 | 0.0 | 1.0 | 0.00 | 0.00 | 0.00 | 61 | 1019.0 |
| 20260503191519 | 59 | 358 | 1.0 | 6.0 | 0.00 | 0.00 | 0.00 | 61 | 1018.8 |
| 20260503191023 | 59 | 358 | 1.0 | 6.0 | 0.00 | 0.00 | 0.00 | 61 | 1018.8 |
| 20260503191021 | 59 | 4 | 6.0 | 18.0 | 0.00 | 0.00 | 0.00 | 62 | 1018.7 |
| 20260503190535 | 59 | 4 | 6.0 | 18.0 | 0.00 | 0.00 | 0.00 | 62 | 1018.7 |
| 20260503190520 | 59 | 4 | 6.0 | 18.0 | 0.00 | 0.00 | 0.00 | 62 | 1018.7 |
| 20260503190017 | 59 | 354 | 8.0 | 12.0 | 0.00 | 0.00 | 0.00 | 62 | 1018.6 |
| 20260503185517 | 59 | 356 | 5.0 | 9.0 | 0.00 | 0.00 | 0.00 | 60 | 1018.6 |
| 20260503185024 | 59 | 305 | 2.0 | 6.0 | 0.00 | 0.00 | 0.00 | 62 | 1018.4 |
| 20260503185021 | 59 | 1 | 3.0 | 7.0 | 0.00 | 0.00 | 0.00 | 61 | 1018.5 |
| 20260503184522 | 59 | 305 | 2.0 | 6.0 | 0.00 | 0.00 | 0.00 | 62 | 1018.4 |
| 20260503184026 | 58 | 330 | 4.0 | 9.0 | 0.00 | 0.00 | 0.00 | 64 | 1018.4 |
| 20260503183606 | 59 | 307 | 2.0 | 5.0 | 0.00 | 0.00 | 0.00 | 64 | 1018.4 |
| 20260503183519 | 59 | 0.0 | 0.0 | 0.00 | 0.00 | 0.00 | 64 | 1018.4 | |
| 20260503183019 | 59 | 100 | 1.0 | 6.0 | 0.00 | 0.00 | 0.00 | 64 | 1018.4 |
| 20260503182522 | 59 | 100 | 1.0 | 6.0 | 0.00 | 0.00 | 0.00 | 64 | 1018.4 |
| 20260503182518 | 59 | 327 | 1.0 | 3.0 | 0.00 | 0.00 | 0.00 | 65 | 1018.3 |
| 20260503182025 | 59 | 121 | 1.0 | 5.0 | 0.00 | 0.00 | 0.00 | 63 | 1018.3 |
| 20260503182022 | 59 | 327 | 1.0 | 3.0 | 0.00 | 0.00 | 0.00 | 65 | 1018.3 |
| 20260503181559 | 59 | 121 | 1.0 | 5.0 | 0.00 | 0.00 | 0.00 | 63 | 1018.3 |
| 20260503181022 | 59 | 135 | 0.0 | 1.0 | 0.00 | 0.00 | 0.00 | 62 | 1018.3 |
| 20260503181016 | 59 | 135 | 0.0 | 1.0 | 0.00 | 0.00 | 0.00 | 62 | 1018.3 |
| 20260503180523 | 59 | 135 | 0.0 | 2.0 | 0.00 | 0.00 | 0.00 | 62 | 1018.1 |
| 20260503180516 | 59 | 135 | 0.0 | 2.0 | 0.00 | 0.00 | 0.00 | 62 | 1018.1 |
| 20260503180022 | 59 | 90 | 0.0 | 2.0 | 0.00 | 0.00 | 0.00 | 61 | 1018.1 |
| 20260503180019 | 59 | 72 | 1.0 | 3.0 | 0.00 | 0.00 | 0.00 | 61 | 1018.1 |
| 20260503175542 | 59 | 72 | 1.0 | 3.0 | 0.00 | 0.00 | 0.00 | 61 | 1018.1 |
| 20260503175519 | 59 | 329 | 1.0 | 3.0 | 0.00 | 0.00 | 0.00 | 61 | 1018.0 |
| 20260503175020 | 59 | 329 | 1.0 | 3.0 | 0.00 | 0.00 | 0.00 | 61 | 1018.0 |
| 20260503174519 | 60 | 340 | 3.0 | 7.0 | 0.00 | 0.00 | 0.00 | 60 | 1017.9 |
| 20260503174019 | 60 | 335 | 4.0 | 9.0 | 0.00 | 0.00 | 0.00 | 59 | 1018.0 |
| 20260503173523 | 60 | 352 | 2.0 | 6.0 | 0.00 | 0.00 | 0.00 | 58 | 1018.1 |
| 20260503173521 | 60 | 0 | 1.0 | 4.0 | 0.00 | 0.00 | 0.00 | 57 | 1018.1 |
| 20260503173024 | 60 | 0 | 1.0 | 4.0 | 0.00 | 0.00 | 0.00 | 57 | 1018.1 |
| 20260503173021 | 60 | 0 | 2.0 | 5.0 | 0.00 | 0.00 | 0.00 | 56 | 1018.0 |
| 20260503172521 | 60 | 313 | 0.0 | 3.0 | 0.00 | 0.00 | 0.00 | 56 | 1017.9 |
| 20260503172518 | 60 | 0 | 2.0 | 5.0 | 0.00 | 0.00 | 0.00 | 56 | 1018.0 |
| 20260503172044 | 60 | 313 | 0.0 | 3.0 | 0.00 | 0.00 | 0.00 | 56 | 1017.9 |
| 20260503172022 | 61 | 5 | 1.0 | 6.0 | 0.00 | 0.00 | 0.00 | 56 | 1017.9 |
| 20260503171525 | 61 | 5 | 1.0 | 6.0 | 0.00 | 0.00 | 0.00 | 56 | 1017.9 |
| 20260503171038 | 61 | 25 | 0.0 | 4.0 | 0.00 | 0.00 | 0.00 | 56 | 1017.8 |
| 20260503171019 | 61 | 87 | 2.0 | 6.0 | 0.00 | 0.00 | 0.00 | 57 | 1017.8 |
| 20260503170518 | 61 | 87 | 2.0 | 6.0 | 0.00 | 0.00 | 0.00 | 57 | 1017.8 |
| 20260503170515 | 61 | 87 | 2.0 | 6.0 | 0.00 | 0.00 | 0.00 | 57 | 1017.8 |
| 20260503150521 | 63 | 24 | 3.0 | 7.0 | 0.00 | 0.00 | 0.00 | 60 | 1017.4 |
| 20260503150519 | 63 | 96 | 2.0 | 8.0 | 0.00 | 0.00 | 0.00 | 60 | 1017.5 |
| 20260503131018 | 65 | 97 | 4.0 | 10.0 | 0.00 | 0.00 | 0.00 | 58 | 1018.0 |
| 20260503130525 | 65 | 41 | 4.0 | 8.0 | 0.00 | 0.00 | 0.00 | 56 | 1018.1 |
| 20260503130518 | 66 | 90 | 3.0 | 8.0 | 0.00 | 0.00 | 0.00 | 56 | 1018.1 |
| 20260503110522 | 66 | 30 | 5.0 | 10.0 | 0.00 | 0.00 | 0.00 | 57 | 1018.7 |
| 20260503110520 | 66 | 3 | 5.0 | 11.0 | 0.00 | 0.00 | 0.00 | 57 | 1018.8 |
| 20260503081520 | 64 | 45 | 6.0 | 11.0 | 0.00 | 0.00 | 0.00 | 58 | 1018.8 |
| 20260503081025 | 64 | 27 | 5.0 | 11.0 | 0.00 | 0.00 | 0.00 | 59 | 1018.8 |
| 20260503081021 | 64 | 80 | 3.0 | 8.0 | 0.00 | 0.00 | 0.00 | 59 | 1018.8 |
| 20260503080520 | 64 | 80 | 3.0 | 8.0 | 0.00 | 0.00 | 0.00 | 59 | 1018.8 |
| 20260503072526 | 62 | 85 | 4.0 | 7.0 | 0.00 | 0.00 | 0.00 | 61 | 1018.9 |
| 20260503072520 | 62 | 66 | 3.0 | 8.0 | 0.00 | 0.00 | 0.00 | 61 | 1018.9 |
| 20260503072019 | 62 | 66 | 3.0 | 8.0 | 0.00 | 0.00 | 0.00 | 61 | 1018.9 |
| 20260503072016 | 62 | 66 | 3.0 | 8.0 | 0.00 | 0.00 | 0.00 | 61 | 1018.9 |
| 20260503071523 | 62 | 69 | 3.0 | 6.0 | 0.00 | 0.00 | 0.00 | 62 | 1018.9 |
| 20260503071021 | 62 | 56 | 4.0 | 11.0 | 0.00 | 0.00 | 0.00 | 62 | 1019.0 |
| 20260503070542 | 62 | 56 | 4.0 | 11.0 | 0.00 | 0.00 | 0.00 | 62 | 1019.0 |
| 20260503070521 | 62 | 47 | 5.0 | 10.0 | 0.00 | 0.00 | 0.00 | 62 | 1019.1 |
| 20260503055024 | 59 | 41 | 3.0 | 7.0 | 0.00 | 0.00 | 0.00 | 65 | 1019.1 |
| 20260503054559 | 59 | 19 | 4.0 | 11.0 | 0.00 | 0.00 | 0.00 | 66 | 1019.1 |
| 20260503054023 | 58 | 62 | 3.0 | 7.0 | 0.00 | 0.00 | 0.00 | 67 | 1019.1 |
| 20260503054021 | 58 | 90 | 3.0 | 7.0 | 0.00 | 0.00 | 0.00 | 67 | 1019.1 |
| 20260503053519 | 58 | 90 | 3.0 | 7.0 | 0.00 | 0.00 | 0.00 | 67 | 1019.1 |
| 20260503053018 | 58 | 56 | 3.0 | 7.0 | 0.00 | 0.00 | 0.00 | 68 | 1019.1 |
| 20260503053016 | 58 | 56 | 3.0 | 7.0 | 0.00 | 0.00 | 0.00 | 68 | 1019.1 |
| 20260503052540 | 58 | 31 | 4.0 | 11.0 | 0.00 | 0.00 | 0.00 | 68 | 1019.1 |
| 20260503052520 | 58 | 74 | 3.0 | 7.0 | 0.00 | 0.00 | 0.00 | 69 | 1019.2 |
| 20260503052020 | 58 | 74 | 3.0 | 7.0 | 0.00 | 0.00 | 0.00 | 69 | 1019.2 |
| 20260503051523 | 57 | 53 | 2.0 | 5.0 | 0.00 | 0.00 | 0.00 | 70 | 1019.2 |
| 20260503051024 | 56 | 18 | 3.0 | 6.0 | 0.00 | 0.00 | 0.00 | 71 | 1019.1 |
| 20260503051020 | 56 | 58 | 4.0 | 9.0 | 0.00 | 0.00 | 0.00 | 72 | 1019.1 |
| 20260503050523 | 56 | 58 | 4.0 | 9.0 | 0.00 | 0.00 | 0.00 | 72 | 1019.1 |
| 20260503050019 | 55 | 111 | 2.0 | 9.0 | 0.00 | 0.00 | 0.00 | 72 | 1019.1 |
| 20260503050016 | 55 | 111 | 2.0 | 9.0 | 0.00 | 0.00 | 0.00 | 72 | 1019.1 |
| 20260503045522 | 55 | 122 | 5.0 | 9.0 | 0.00 | 0.00 | 0.00 | 72 | 1019.1 |
| 20260503045044 | 55 | 139 | 7.0 | 10.0 | 0.00 | 0.00 | 0.00 | 72 | 1019.1 |
| 20260503045020 | 55 | 137 | 4.0 | 9.0 | 0.00 | 0.00 | 0.00 | 72 | 1019.1 |
| 20260503044523 | 55 | 137 | 4.0 | 9.0 | 0.00 | 0.00 | 0.00 | 72 | 1019.1 |
| 20260503044023 | 55 | 147 | 4.0 | 9.0 | 0.00 | 0.00 | 0.00 | 72 | 1019.1 |
| 20260503043525 | 55 | 136 | 4.0 | 7.0 | 0.00 | 0.00 | 0.00 | 72 | 1019.1 |
| 20260503043020 | 55 | 120 | 3.0 | 8.0 | 0.00 | 0.00 | 0.00 | 71 | 1019.0 |
| 20260503043015 | 55 | 120 | 3.0 | 8.0 | 0.00 | 0.00 | 0.00 | 71 | 1019.0 |
| 20260503042523 | 55 | 12 | 2.0 | 8.0 | 0.00 | 0.00 | 0.00 | 71 | 1019.0 |
| 20260503042024 | 55 | 94 | 1.0 | 6.0 | 0.00 | 0.00 | 0.00 | 72 | 1018.9 |
| 20260503042017 | 55 | 12 | 2.0 | 8.0 | 0.00 | 0.00 | 0.00 | 71 | 1019.0 |
| 20260503041523 | 55 | 94 | 1.0 | 6.0 | 0.00 | 0.00 | 0.00 | 72 | 1018.9 |
| 20260503041019 | 55 | 79 | 3.0 | 6.0 | 0.00 | 0.00 | 0.00 | 71 | 1018.8 |
| 20260503040523 | 55 | 61 | 2.0 | 5.0 | 0.00 | 0.00 | 0.00 | 71 | 1018.8 |
| 20260503040519 | 55 | 83 | 2.0 | 4.0 | 0.00 | 0.00 | 0.00 | 71 | 1018.9 |
| 20260503040019 | 55 | 83 | 2.0 | 4.0 | 0.00 | 0.00 | 0.00 | 71 | 1018.9 |
| 20260503040016 | 55 | 83 | 2.0 | 4.0 | 0.00 | 0.00 | 0.00 | 71 | 1018.9 |
| 20260503035539 | 55 | 27 | 2.0 | 7.0 | 0.00 | 0.00 | 0.00 | 71 | 1018.9 |
| 20260503035522 | 55 | 62 | 2.0 | 6.0 | 0.00 | 0.00 | 0.00 | 71 | 1019.0 |
| 20260503035048 | 55 | 62 | 2.0 | 6.0 | 0.00 | 0.00 | 0.00 | 71 | 1019.0 |
| 20260503035018 | 55 | 45 | 1.0 | 5.0 | 0.00 | 0.00 | 0.00 | 71 | 1019.0 |
| 20260503034520 | 55 | 45 | 1.0 | 5.0 | 0.00 | 0.00 | 0.00 | 71 | 1019.0 |
| 20260503034025 | 55 | 64 | 2.0 | 7.0 | 0.00 | 0.00 | 0.00 | 71 | 1019.0 |
| 20260503034021 | 55 | 74 | 3.0 | 6.0 | 0.00 | 0.00 | 0.00 | 71 | 1019.0 |
| 20260503033522 | 55 | 69 | 2.0 | 7.0 | 0.00 | 0.00 | 0.00 | 71 | 1018.9 |
| 20260503033517 | 55 | 74 | 3.0 | 6.0 | 0.00 | 0.00 | 0.00 | 71 | 1019.0 |